Location: Ferintosh
(52.7647°N, 112.9692°W)
Time: 21:53:16
(UTC+00:00)

BlueWalker 3 - Visible Passes

Search period start: 05 October 2024 00:00
Search period end: 15 October 2024 00:00
Orbit: 473 x 485 km, 53.2° (Epoch: 05 October)

Date Brightness Start Highest point End Pass type
(mag) Time Alt. Az. Time Alt. Az. Time Alt. Az.
05 Oct 3.2 12:53:17 10° SW 12:56:40 35° SSE 13:00:04 10° E visible
06 Oct 3.3 12:25:12 10° SSW 12:28:32 32° SSE 12:31:53 10° E visible
07 Oct 3.3 11:58:21 18° SSW 12:00:22 30° SSE 12:03:38 10° E visible
08 Oct 3.3 11:31:29 26° SSE 11:32:09 28° SE 11:35:21 10° E visible
08 Oct 1.9 13:06:07 10° WSW 13:09:49 79° SSE 13:13:32 10° E visible
09 Oct 3.7 11:04:30 24° SE 11:04:30 24° SE 11:07:01 10° E visible
09 Oct 1.9 12:38:42 16° WSW 12:41:32 76° SSE 12:45:14 10° ENE visible
10 Oct 4.5 10:37:25 17° ESE 10:37:25 17° ESE 10:38:38 10° E visible
10 Oct 1.9 12:11:37 32° WSW 12:13:12 72° SSE 12:16:54 10° ENE visible
11 Oct 1.8 11:44:27 62° SSW 11:44:50 69° SSE 11:48:32 10° ENE visible
12 Oct 2.6 11:17:13 49° ESE 11:17:13 49° ESE 11:20:07 10° ENE visible
12 Oct 1.8 12:51:24 15° W 12:54:25 81° N 12:58:08 10° E visible
13 Oct 4.0 10:49:56 25° E 10:49:56 25° E 10:51:39 10° ENE visible
13 Oct 1.8 12:24:07 28° W 12:25:57 81° N 12:29:40 10° E visible
14 Oct 4.9 10:22:36 14° E 10:22:36 14° E 10:23:09 10° ENE visible
14 Oct 1.7 11:56:47 57° W 11:57:27 82° N 12:01:10 10° E visible
